| time (UTC) | temp F | wind direction | speed MPH | gust MPH | rain 1hr in | rain 24hr in | rain mn in | humidity % | barometer mb |
| 20260504043058 | 61 | 235 | 1.0 | 6.0 | 0.00 | 0.00 | 0.00 | 69 | 1009.8 |
| 20260504041552 | 61 | 229 | 3.0 | 6.0 | 0.00 | 0.00 | 0.00 | 66 | 1009.8 |
| 20260504034558 | 62 | 250 | 1.0 | 5.0 | 0.00 | 0.00 | 0.00 | 64 | 1009.5 |
| 20260504033114 | 62 | 249 | 2.0 | 6.0 | 0.00 | 0.00 | 0.00 | 63 | 1009.4 |
| 20260504031544 | 63 | 252 | 1.0 | 5.0 | 0.00 | 0.00 | 0.00 | 60 | 1009.6 |
| 20260504030047 | 63 | 269 | 1.0 | 5.0 | 0.00 | 0.00 | 0.00 | 59 | 1009.7 |
| 20260504024544 | 63 | 284 | 4.0 | 10.0 | 0.00 | 0.00 | 0.00 | 57 | 1009.3 |
| 20260504023056 | 63 | 243 | 1.0 | 4.0 | 0.00 | 0.00 | 0.00 | 55 | 1009.7 |
| 20260504021539 | 63 | 236 | 1.0 | 4.0 | 0.00 | 0.00 | 0.00 | 54 | 1009.6 |
| 20260504020039 | 63 | 237 | 1.0 | 4.0 | 0.00 | 0.00 | 0.00 | 53 | 1009.8 |
| 20260504014545 | 64 | 234 | 1.0 | 4.0 | 0.00 | 0.00 | 0.00 | 53 | 1009.7 |
| 20260504013036 | 64 | 230 | 2.0 | 4.0 | 0.00 | 0.00 | 0.00 | 51 | 1009.5 |
| 20260504011530 | 65 | 231 | 1.0 | 4.0 | 0.00 | 0.00 | 0.00 | 50 | 1009.4 |
| 20260504010029 | 66 | 262 | 2.0 | 4.0 | 0.00 | 0.00 | 0.00 | 48 | 1009.3 |
| 20260504004523 | 67 | 279 | 1.0 | 7.0 | 0.00 | 0.00 | 0.00 | 46 | 1009.2 |
| 20260504003029 | 67 | 304 | 1.0 | 9.0 | 0.00 | 0.00 | 0.00 | 45 | 1009.0 |
| 20260504001521 | 68 | 279 | 3.0 | 10.0 | 0.00 | 0.00 | 0.00 | 44 | 1009.0 |
| 20260504000020 | 68 | 290 | 5.0 | 10.0 | 0.00 | 0.00 | 0.00 | 43 | 1008.9 |
| 20260503234532 | 69 | 302 | 4.0 | 10.0 | 0.00 | 0.00 | 0.00 | 42 | 1008.8 |
| 20260503233018 | 69 | 277 | 5.0 | 11.0 | 0.00 | 0.00 | 0.00 | 41 | 1008.8 |
| 20260503231516 | 69 | 270 | 4.0 | 10.0 | 0.00 | 0.00 | 0.00 | 42 | 1008.8 |
| 20260503230017 | 68 | 284 | 4.0 | 8.0 | 0.00 | 0.00 | 0.00 | 45 | 1008.9 |
| 20260503224511 | 67 | 272 | 4.0 | 7.0 | 0.00 | 0.00 | 0.00 | 47 | 1008.7 |
| 20260503223109 | 67 | 307 | 3.0 | 8.0 | 0.00 | 0.00 | 0.00 | 48 | 1008.4 |
| 20260503221506 | 68 | 261 | 3.0 | 8.0 | 0.00 | 0.00 | 0.00 | 48 | 1008.5 |
| 20260503220004 | 68 | 284 | 2.0 | 9.0 | 0.00 | 0.00 | 0.00 | 47 | 1008.6 |
| 20260503214502 | 68 | 292 | 2.0 | 4.0 | 0.00 | 0.00 | 0.00 | 52 | 1008.7 |
| 20260503213002 | 68 | 295 | 1.0 | 3.0 | 0.00 | 0.00 | 0.00 | 49 | 1008.6 |
| 20260503211502 | 69 | 299 | 0.0 | 0.0 | 0.00 | 0.00 | 0.00 | 48 | 1008.5 |
| 20260503210001 | 69 | 299 | 0.0 | 0.0 | 0.00 | 0.00 | 0.00 | 47 | 1008.3 |
| 20260503204501 | 70 | 302 | 0.0 | 0.0 | 0.00 | 0.00 | 0.00 | 45 | 1008.2 |
| 20260503203106 | 71 | 302 | 0.0 | 1.0 | 0.00 | 0.00 | 0.00 | 43 | 1008.3 |
| 20260503201605 | 71 | 302 | 0.0 | 3.0 | 0.00 | 0.00 | 0.00 | 41 | 1008.3 |
| 20260503194600 | 73 | 305 | 2.0 | 8.0 | 0.00 | 0.00 | 0.00 | 41 | 1008.2 |
| 20260503193101 | 74 | 290 | 6.0 | 8.0 | 0.00 | 0.00 | 0.00 | 39 | 1008.1 |
| 20260503191627 | 74 | 275 | 0.0 | 6.0 | 0.00 | 0.00 | 0.00 | 39 | 1008.0 |
| 20260503190057 | 75 | 256 | 1.0 | 5.0 | 0.00 | 0.00 | 0.00 | 38 | 1007.9 |
| 20260503184600 | 77 | 226 | 0.0 | 0.0 | 0.00 | 0.00 | 0.00 | 36 | 1007.7 |
| 20260503183113 | 78 | 226 | 0.0 | 0.0 | 0.00 | 0.00 | 0.00 | 34 | 1007.5 |
| 20260503181555 | 79 | 226 | 0.0 | 2.0 | 0.00 | 0.00 | 0.00 | 32 | 1007.4 |
| 20260503180055 | 79 | 226 | 2.0 | 6.0 | 0.00 | 0.00 | 0.00 | 31 | 1007.4 |
| 20260503174553 | 80 | 219 | 2.0 | 5.0 | 0.00 | 0.00 | 0.00 | 29 | 1007.4 |
| 20260503173115 | 81 | 190 | 4.0 | 9.0 | 0.00 | 0.00 | 0.00 | 30 | 1007.4 |
| 20260503171551 | 81 | 215 | 5.0 | 10.0 | 0.00 | 0.00 | 0.00 | 28 | 1007.4 |
| 20260503120108 | 82 | 235 | 3.0 | 14.0 | 0.00 | 0.00 | 0.00 | 27 | 1009.8 |
| 20260503081511 | 72 | 238 | 5.0 | 10.0 | 0.00 | 0.00 | 0.00 | 41 | 1011.5 |
| 20260503071616 | 67 | 206 | 3.0 | 6.0 | 0.00 | 0.00 | 0.00 | 47 | 1011.7 |
| 20260503070108 | 66 | 236 | 6.0 | 10.0 | 0.00 | 0.00 | 0.00 | 47 | 1011.7 |
| 20260503054541 | 61 | 202 | 2.0 | 11.0 | 0.00 | 0.00 | 0.00 | 52 | 1011.6 |
| 20260503053041 | 61 | 234 | 5.0 | 10.0 | 0.00 | 0.00 | 0.00 | 54 | 1011.6 |
| 20260503051536 | 60 | 234 | 3.0 | 8.0 | 0.00 | 0.00 | 0.00 | 54 | 1011.5 |
| 20260503050036 | 59 | 205 | 4.0 | 8.0 | 0.00 | 0.00 | 0.00 | 59 | 1011.7 |
| 20260503044534 | 58 | 217 | 2.0 | 6.0 | 0.00 | 0.00 | 0.00 | 61 | 1011.6 |